Time,TemperatureF,DewpointF,PressureIn,WindDirection,WindDirectionDegrees,WindSpeedMPH,WindSpeedGustMPH,Humidity,HourlyPrecipIn,Conditions,Clouds,dailyrainin,SoftwareType,DateUTC
2013-05-17 00:00:00,63.7,56.4,29.89,SSE,158,0.4,2.2,77,0.00,,CLR,0.00,VWS V14.01,2013-05-17 05:00:00,
2013-05-17 00:05:00,63.5,56.2,29.89,SE,135,0.7,1.8,77,0.00,,CLR,0.00,VWS V14.01,2013-05-17 05:05:00,
2013-05-17 00:10:00,63.5,56.2,29.89,ESE,112,0.0,1.8,77,0.00,,CLR,0.00,VWS V14.01,2013-05-17 05:10:00,
2013-05-17 00:15:00,63.3,56.3,29.89,ESE,112,0.4,0.4,78,0.00,,CLR,0.00,VWS V14.01,2013-05-17 05:15:00,
2013-05-17 00:20:00,63.3,56.0,29.89,WSW,248,0.4,1.1,77,0.00,,CLR,0.00,VWS V14.01,2013-05-17 05:20:00,
2013-05-17 00:25:00,63.1,56.1,29.90,SE,135,0.0,0.9,78,0.00,,CLR,0.00,VWS V14.01,2013-05-17 05:25:00,
2013-05-17 00:30:00,62.9,55.9,29.90,South,180,0.4,0.4,78,0.00,,CLR,0.00,VWS V14.01,2013-05-17 05:30:00,
2013-05-17 00:35:00,62.8,55.8,29.89,SSE,158,0.0,0.9,78,0.00,,CLR,0.00,VWS V14.01,2013-05-17 05:35:00,
2013-05-17 00:40:00,62.8,56.2,29.90,SE,135,1.1,2.0,79,0.00,,CLR,0.00,VWS V14.01,2013-05-17 05:40:00,
2013-05-17 00:45:00,62.6,56.0,29.89,SE,135,0.0,1.1,79,0.00,,CLR,0.00,VWS V14.01,2013-05-17 05:45:00,
2013-05-17 00:50:00,62.4,56.2,29.90,SE,135,0.7,1.6,80,0.00,,CLR,0.00,VWS V14.01,2013-05-17 05:50:00,
2013-05-17 00:55:00,62.4,56.2,29.90,WSW,248,0.0,0.7,80,0.00,,CLR,0.00,VWS V14.01,2013-05-17 05:55:00,
2013-05-17 01:00:00,62.2,56.0,29.90,SE,135,0.0,0.0,80,0.00,,CLR,0.00,VWS V14.01,2013-05-17 06:00:00,
2013-05-17 01:10:00,62.0,55.8,29.90,ENE,68,0.0,0.9,80,0.00,,CLR,0.00,VWS V14.01,2013-05-17 06:10:00,
2013-05-17 01:15:00,61.9,55.7,29.90,NE,45,0.0,0.0,80,0.00,,CLR,0.00,VWS V14.01,2013-05-17 06:15:00,
2013-05-17 01:20:00,61.7,55.1,29.90,SSE,158,0.2,0.4,79,0.00,,CLR,0.00,VWS V14.01,2013-05-17 06:20:00,
2013-05-17 01:25:00,61.5,55.3,29.90,SSE,158,0.0,0.2,80,0.00,,CLR,0.00,VWS V14.01,2013-05-17 06:25:00,
2013-05-17 01:30:00,61.3,55.1,29.89,SSE,158,0.0,0.7,80,0.00,,CLR,0.00,VWS V14.01,2013-05-17 06:30:00,
2013-05-17 01:35:00,61.3,55.4,29.89,SE,135,0.4,2.2,81,0.00,,CLR,0.00,VWS V14.01,2013-05-17 06:35:00,
2013-05-17 01:40:00,61.1,55.2,29.89,SE,135,0.4,1.1,81,0.00,,CLR,0.00,VWS V14.01,2013-05-17 06:40:00,
2013-05-17 01:45:00,61.0,55.1,29.89,South,180,0.0,1.6,81,0.00,,CLR,0.00,VWS V14.01,2013-05-17 06:45:00,
2013-05-17 01:50:00,61.0,55.1,29.89,South,180,0.0,0.0,81,0.00,,CLR,0.00,VWS V14.01,2013-05-17 06:50:00,
2013-05-17 01:55:00,61.0,55.1,29.89,South,180,0.0,0.0,81,0.00,,CLR,0.00,VWS V14.01,2013-05-17 06:55:00,
2013-05-17 02:05:00,60.8,54.9,29.89,North,0,0.0,0.0,81,0.00,,CLR,0.00,VWS V14.01,2013-05-17 07:05:00,
2013-05-17 02:10:00,60.6,55.1,29.89,ESE,112,0.0,0.4,82,0.00,,CLR,0.00,VWS V14.01,2013-05-17 07:10:00,
2013-05-17 02:15:00,60.6,55.1,29.89,ESE,112,0.0,0.0,82,0.00,,CLR,0.00,VWS V14.01,2013-05-17 07:15:00,
2013-05-17 02:20:00,60.4,54.9,29.89,ENE,68,0.0,0.0,82,0.00,,CLR,0.00,VWS V14.01,2013-05-17 07:20:00,
2013-05-17 02:25:00,60.2,54.7,29.89,ESE,112,0.0,1.1,82,0.00,,CLR,0.00,VWS V14.01,2013-05-17 07:25:00,
2013-05-17 02:30:00,60.2,55.0,29.89,SW,225,0.0,1.1,83,0.00,,CLR,0.00,VWS V14.01,2013-05-17 07:30:00,
2013-05-17 02:35:00,60.2,55.0,29.88,SW,225,0.0,0.0,83,0.00,,CLR,0.00,VWS V14.01,2013-05-17 07:35:00,
2013-05-17 02:40:00,60.1,54.9,29.88,SSE,158,0.0,0.0,83,0.00,,CLR,0.00,VWS V14.01,2013-05-17 07:40:00,
2013-05-17 02:45:00,60.1,54.9,29.88,SE,135,0.2,0.2,83,0.00,,CLR,0.00,VWS V14.01,2013-05-17 07:45:00,
2013-05-17 02:50:00,60.1,54.9,29.88,SE,135,1.1,1.1,83,0.00,,CLR,0.00,VWS V14.01,2013-05-17 07:50:00,
2013-05-17 02:55:00,60.1,55.3,29.88,SE,135,0.0,1.1,84,0.00,,CLR,0.00,VWS V14.01,2013-05-17 07:55:00,
2013-05-17 03:05:00,60.1,55.3,29.88,ESE,112,0.0,1.1,84,0.00,,CLR,0.00,VWS V14.01,2013-05-17 08:05:00,
2013-05-17 03:10:00,60.1,55.3,29.88,ESE,112,0.0,0.2,84,0.00,,CLR,0.00,VWS V14.01,2013-05-17 08:10:00,
2013-05-17 03:15:00,60.1,55.3,29.89,NNE,22,0.0,0.7,84,0.00,,FEW016,0.00,VWS V14.01,2013-05-17 08:15:00,
2013-05-17 03:20:00,59.9,55.1,29.89,NE,45,0.0,0.0,84,0.00,,FEW016,0.00,VWS V14.01,2013-05-17 08:20:00,
2013-05-17 03:25:00,59.9,55.1,29.88,ENE,68,0.7,0.7,84,0.00,,FEW016,0.00,VWS V14.01,2013-05-17 08:25:00,
2013-05-17 03:30:00,59.7,55.2,29.89,ENE,68,0.4,0.7,85,0.00,,FEW016,0.00,VWS V14.01,2013-05-17 08:30:00,
2013-05-17 03:35:00,59.5,54.7,29.89,ESE,112,0.0,0.4,84,0.00,,FEW016,0.00,VWS V14.01,2013-05-17 08:35:00,
2013-05-17 03:40:00,59.5,55.0,29.89,ESE,112,0.0,0.0,85,0.00,,FEW016,0.00,VWS V14.01,2013-05-17 08:40:00,
2013-05-17 03:45:00,59.3,54.8,29.88,ENE,68,0.4,1.1,85,0.00,,FEW016,0.00,VWS V14.01,2013-05-17 08:45:00,
2013-05-17 03:50:00,59.3,54.8,29.88,South,180,0.7,0.7,85,0.00,,FEW016,0.00,VWS V14.01,2013-05-17 08:50:00,
2013-05-17 03:55:00,59.2,54.7,29.88,SE,135,0.0,1.1,85,0.00,,FEW016,0.00,VWS V14.01,2013-05-17 08:55:00,
2013-05-17 04:05:00,59.2,54.7,29.89,WSW,248,0.0,0.0,85,0.00,,FEW016,0.00,VWS V14.01,2013-05-17 09:05:00,
2013-05-17 04:10:00,59.2,54.7,29.89,WSW,248,0.0,0.0,85,0.00,,FEW016,0.00,VWS V14.01,2013-05-17 09:10:00,
2013-05-17 04:15:00,59.0,54.8,29.89,WSW,248,0.0,0.0,86,0.00,,BKN016,0.00,VWS V14.01,2013-05-17 09:15:00,
2013-05-17 04:20:00,58.8,54.6,29.89,South,180,0.0,0.2,86,0.00,,BKN016,0.00,VWS V14.01,2013-05-17 09:20:00,
2013-05-17 04:25:00,58.8,54.6,29.89,South,180,0.0,0.0,86,0.00,,BKN016,0.00,VWS V14.01,2013-05-17 09:25:00,
2013-05-17 04:30:00,58.6,54.4,29.89,South,180,0.0,0.0,86,0.00,,BKN016,0.00,VWS V14.01,2013-05-17 09:30:00,
2013-05-17 04:35:00,58.4,54.2,29.89,South,180,0.0,0.0,86,0.00,,BKN016,0.00,VWS V14.01,2013-05-17 09:35:00,
2013-05-17 04:40:00,58.4,54.2,29.89,South,180,0.0,0.0,86,0.00,,BKN016,0.00,VWS V14.01,2013-05-17 09:40:00,
2013-05-17 04:45:00,58.4,54.2,29.89,South,180,0.0,0.0,86,0.00,,BKN016,0.00,VWS V14.01,2013-05-17 09:45:00,
2013-05-17 04:50:00,58.3,54.1,29.89,SE,135,0.7,0.7,86,0.00,,BKN016,0.00,VWS V14.01,2013-05-17 09:50:00,
2013-05-17 04:55:00,58.3,54.5,29.89,NE,45,0.0,0.7,87,0.00,,BKN016,0.00,VWS V14.01,2013-05-17 09:55:00,
2013-05-17 05:00:00,58.3,54.5,29.89,ESE,112,0.0,0.0,87,0.00,,BKN016,0.00,VWS V14.01,2013-05-17 10:00:00,
2013-05-17 05:10:00,58.4,54.5,29.89,ESE,112,0.0,0.0,87,0.00,,BKN016,0.00,VWS V14.01,2013-05-17 10:10:00,
2013-05-17 05:15:00,58.4,54.5,29.89,SE,135,0.0,1.1,87,0.00,,,0.00,VWS V14.01,2013-05-17 10:15:00,
2013-05-17 05:20:00,58.6,54.8,29.89,SSE,158,0.4,0.7,87,0.00,,,0.00,VWS V14.01,2013-05-17 10:20:00,
2013-05-17 05:25:00,58.8,55.0,29.89,South,180,0.0,0.4,87,0.00,,,0.00,VWS V14.01,2013-05-17 10:25:00,
2013-05-17 05:30:00,58.8,55.0,29.89,SW,225,0.0,0.0,87,0.00,,,0.00,VWS V14.01,2013-05-17 10:30:00,
2013-05-17 05:35:00,58.8,55.0,29.89,SSE,158,1.1,1.1,87,0.00,,,0.00,VWS V14.01,2013-05-17 10:35:00,
2013-05-17 05:40:00,58.8,55.0,29.89,SSE,158,0.9,1.1,87,0.00,,,0.00,VWS V14.01,2013-05-17 10:40:00,
2013-05-17 05:45:00,58.8,55.3,29.89,WSW,248,1.1,1.1,88,0.00,,,0.00,VWS V14.01,2013-05-17 10:45:00,
2013-05-17 05:50:00,59.0,55.5,29.89,SE,135,1.1,1.1,88,0.00,,,0.00,VWS V14.01,2013-05-17 10:50:00,
2013-05-17 05:55:00,59.0,55.5,29.89,ESE,112,3.1,3.1,88,0.00,,,0.00,VWS V14.01,2013-05-17 10:55:00,
2013-05-17 06:00:00,59.0,55.5,29.89,ESE,112,0.4,0.4,88,0.00,,,0.00,VWS V14.01,2013-05-17 11:00:00,
2013-05-17 06:10:00,59.0,55.5,29.89,SE,135,1.1,1.1,88,0.00,,,0.00,VWS V14.01,2013-05-17 11:10:00,
2013-05-17 06:15:00,59.0,55.5,29.89,SE,135,0.0,1.1,88,0.00,,,0.00,VWS V14.01,2013-05-17 11:15:00,
2013-05-17 06:20:00,59.0,55.5,29.90,SE,135,0.0,0.0,88,0.00,,,0.00,VWS V14.01,2013-05-17 11:20:00,
2013-05-17 06:25:00,59.0,55.5,29.90,SE,135,0.0,0.0,88,0.00,,,0.00,VWS V14.01,2013-05-17 11:25:00,
2013-05-17 06:30:00,59.0,55.5,29.90,North,0,0.0,0.0,88,0.00,,,0.00,VWS V14.01,2013-05-17 11:30:00,
2013-05-17 06:35:00,59.2,55.7,29.91,North,0,0.0,0.0,88,0.00,,,0.00,VWS V14.01,2013-05-17 11:35:00,
2013-05-17 06:40:00,59.2,55.7,29.91,North,0,0.0,0.0,88,0.00,,,0.00,VWS V14.01,2013-05-17 11:40:00,
2013-05-17 06:45:00,59.2,55.7,29.92,North,0,0.0,0.0,88,0.00,,,0.00,VWS V14.01,2013-05-17 11:45:00,
2013-05-17 06:50:00,59.2,55.7,29.92,SE,135,1.1,1.6,88,0.00,,,0.00,VWS V14.01,2013-05-17 11:50:00,
2013-05-17 06:55:00,59.3,55.8,29.92,SE,135,0.0,1.1,88,0.00,,,0.00,VWS V14.01,2013-05-17 11:55:00,
2013-05-17 07:00:00,59.5,56.0,29.92,SE,135,0.0,0.0,88,0.00,,,0.00,VWS V14.01,2013-05-17 12:00:00,
2013-05-17 07:10:00,59.7,56.2,29.93,SSE,158,0.0,0.0,88,0.00,,,0.00,VWS V14.01,2013-05-17 12:10:00,
2013-05-17 07:15:00,59.7,56.2,29.93,SSE,158,0.4,0.4,88,0.00,,,0.00,VWS V14.01,2013-05-17 12:15:00,
2013-05-17 07:20:00,59.9,56.3,29.93,SSE,158,0.0,0.4,88,0.00,,,0.00,VWS V14.01,2013-05-17 12:20:00,
2013-05-17 07:25:00,59.9,56.3,29.93,SE,135,0.0,1.1,88,0.00,,,0.00,VWS V14.01,2013-05-17 12:25:00,
2013-05-17 07:30:00,59.9,56.0,29.94,SE,135,1.6,1.6,87,0.00,,,0.00,VWS V14.01,2013-05-17 12:30:00,
2013-05-17 07:35:00,60.1,56.2,29.93,East,90,0.0,1.8,87,0.00,,,0.00,VWS V14.01,2013-05-17 12:35:00,
2013-05-17 07:40:00,60.2,56.3,29.94,SE,135,0.2,0.4,87,0.00,,,0.00,VWS V14.01,2013-05-17 12:40:00,
2013-05-17 07:45:00,60.4,56.5,29.95,SSW,202,0.4,0.9,87,0.00,,,0.00,VWS V14.01,2013-05-17 12:45:00,
2013-05-17 07:50:00,60.6,56.7,29.95,SSE,158,1.1,2.2,87,0.00,,,0.00,VWS V14.01,2013-05-17 12:50:00,
2013-05-17 07:55:00,60.8,56.9,29.95,ESE,112,0.0,1.1,87,0.00,,,0.00,VWS V14.01,2013-05-17 12:55:00,
2013-05-17 08:00:00,61.0,57.1,29.95,SSW,202,0.2,0.2,87,0.00,,,0.00,VWS V14.01,2013-05-17 13:00:00,
2013-05-17 08:10:00,61.3,57.4,29.95,SE,135,1.3,2.0,87,0.00,,,0.00,VWS V14.01,2013-05-17 13:10:00,
2013-05-17 08:15:00,61.5,57.3,29.95,SE,135,2.0,2.0,86,0.00,,,0.00,VWS V14.01,2013-05-17 13:15:00,
2013-05-17 08:20:00,61.7,57.5,29.95,SE,135,0.7,2.0,86,0.00,,,0.00,VWS V14.01,2013-05-17 13:20:00,
2013-05-17 08:25:00,61.9,57.7,29.95,SE,135,1.8,1.8,86,0.00,,,0.00,VWS V14.01,2013-05-17 13:25:00,
2013-05-17 08:30:00,62.0,57.5,29.96,SE,135,1.8,1.8,85,0.00,,,0.00,VWS V14.01,2013-05-17 13:30:00,
2013-05-17 08:35:00,62.2,57.6,29.96,SE,135,1.8,1.8,85,0.00,,,0.00,VWS V14.01,2013-05-17 13:35:00,
2013-05-17 08:40:00,62.4,57.8,29.96,West,270,0.0,1.8,85,0.00,,,0.00,VWS V14.01,2013-05-17 13:40:00,
2013-05-17 08:45:00,62.6,58.0,29.96,SSE,158,2.5,2.5,85,0.00,,,0.00,VWS V14.01,2013-05-17 13:45:00,
2013-05-17 08:50:00,62.8,58.2,29.96,West,270,0.0,2.5,85,0.00,,,0.00,VWS V14.01,2013-05-17 13:50:00,
2013-05-17 08:55:00,62.8,58.2,29.96,SE,135,1.1,1.1,85,0.00,,,0.00,VWS V14.01,2013-05-17 13:55:00,
2013-05-17 09:00:00,62.9,58.3,29.96,ESE,112,3.6,3.6,85,0.00,,,0.00,VWS V14.01,2013-05-17 14:00:00,
2013-05-17 09:10:00,63.1,58.5,29.96,SE,135,0.4,2.0,85,0.00,,,0.00,VWS V14.01,2013-05-17 14:10:00,
2013-05-17 09:15:00,63.1,58.5,29.96,SE,135,0.0,1.3,85,0.00,,,0.00,VWS V14.01,2013-05-17 14:15:00,
2013-05-17 09:20:00,63.5,58.9,29.96,SW,225,0.7,2.7,85,0.00,,,0.00,VWS V14.01,2013-05-17 14:20:00,
2013-05-17 09:25:00,63.5,58.6,29.96,South,180,0.9,2.9,84,0.00,,,0.00,VWS V14.01,2013-05-17 14:25:00,
2013-05-17 09:30:00,63.5,58.6,29.96,SE,135,0.0,1.6,84,0.00,,,0.00,VWS V14.01,2013-05-17 14:30:00,
2013-05-17 09:35:00,63.5,58.6,29.96,SE,135,1.1,1.8,84,0.00,,,0.00,VWS V14.01,2013-05-17 14:35:00,
2013-05-17 09:40:00,63.5,58.6,29.95,SE,135,1.1,1.1,84,0.00,,,0.00,VWS V14.01,2013-05-17 14:40:00,
2013-05-17 09:45:00,63.5,58.6,29.95,SE,135,1.8,1.8,84,0.00,,,0.00,VWS V14.01,2013-05-17 14:45:00,
2013-05-17 09:50:00,63.7,58.8,29.95,WSW,248,1.1,1.8,84,0.00,,,0.00,VWS V14.01,2013-05-17 14:50:00,
2013-05-17 09:55:00,63.8,58.9,29.95,WNW,292,2.2,2.2,84,0.00,,,0.00,VWS V14.01,2013-05-17 14:55:00,
2013-05-17 10:01:00,64.0,59.1,29.95,WNW,292,1.8,1.8,84,0.00,,,0.00,VWS V14.01,2013-05-17 15:01:00,
2013-05-17 10:10:00,64.4,59.5,29.95,SSE,158,1.1,1.1,84,0.00,,,0.00,VWS V14.01,2013-05-17 15:10:00,
2013-05-17 10:15:00,64.4,59.1,29.95,SE,135,0.4,1.1,83,0.00,,,0.00,VWS V14.01,2013-05-17 15:15:00,
2013-05-17 10:20:00,64.4,59.1,29.95,SSE,158,1.1,1.1,83,0.00,,,0.00,VWS V14.01,2013-05-17 15:20:00,
2013-05-17 10:25:00,64.6,59.3,29.95,South,180,0.2,2.7,83,0.00,,,0.00,VWS V14.01,2013-05-17 15:25:00,
2013-05-17 10:30:00,64.6,59.3,29.95,SE,135,1.1,1.8,83,0.00,,,0.00,VWS V14.01,2013-05-17 15:30:00,
2013-05-17 10:35:00,64.9,59.6,29.95,ESE,112,1.6,1.6,83,0.00,,,0.00,VWS V14.01,2013-05-17 15:35:00,
2013-05-17 10:40:00,64.9,59.6,29.95,ESE,112,0.0,1.6,83,0.00,,,0.00,VWS V14.01,2013-05-17 15:40:00,
2013-05-17 10:45:00,65.1,59.5,29.95,West,270,1.8,3.6,82,0.00,,,0.00,VWS V14.01,2013-05-17 15:45:00,
2013-05-17 10:50:00,65.3,59.7,29.95,ESE,112,0.9,2.0,82,0.00,,,0.00,VWS V14.01,2013-05-17 15:50:00,
2013-05-17 10:55:00,65.5,59.9,29.95,South,180,0.4,0.9,82,0.00,,,0.00,VWS V14.01,2013-05-17 15:55:00,
2013-05-17 11:01:00,65.5,59.5,29.95,SSE,158,0.2,0.9,81,0.00,,,0.00,VWS V14.01,2013-05-17 16:01:00,
2013-05-17 11:10:00,65.5,59.5,29.95,West,270,0.4,1.1,81,0.00,,,0.00,VWS V14.01,2013-05-17 16:10:00,
2013-05-17 11:15:00,65.6,59.6,29.95,SSE,158,0.0,0.4,81,0.00,,OVC024,0.00,VWS V14.01,2013-05-17 16:15:00,
2013-05-17 11:20:00,65.8,59.8,29.95,SSE,158,1.1,1.8,81,0.00,,OVC024,0.00,VWS V14.01,2013-05-17 16:20:00,
2013-05-17 11:25:00,65.6,59.3,29.95,ESE,112,0.9,2.5,80,0.00,,OVC024,0.00,VWS V14.01,2013-05-17 16:25:00,
2013-05-17 11:30:00,65.6,59.3,29.95,SSW,202,0.0,1.6,80,0.00,,OVC024,0.00,VWS V14.01,2013-05-17 16:30:00,
2013-05-17 11:35:00,65.6,59.3,29.95,ESE,112,1.1,1.1,80,0.00,,OVC024,0.00,VWS V14.01,2013-05-17 16:35:00,
2013-05-17 11:40:00,65.6,59.3,29.96,SE,135,1.1,2.2,80,0.00,,OVC024,0.00,VWS V14.01,2013-05-17 16:40:00,
2013-05-17 11:45:00,65.6,59.3,29.96,NE,45,0.4,1.1,80,0.00,,OVC024,0.00,VWS V14.01,2013-05-17 16:45:00,
2013-05-17 11:50:00,66.0,59.7,29.95,SE,135,0.0,2.5,80,0.00,,OVC024,0.00,VWS V14.01,2013-05-17 16:50:00,
2013-05-17 11:55:00,66.2,59.9,29.96,East,90,1.1,1.6,80,0.00,,OVC024,0.00,VWS V14.01,2013-05-17 16:55:00,
2013-05-17 12:01:00,66.4,59.7,29.96,South,180,0.0,0.0,79,0.00,,OVC024,0.00,VWS V14.01,2013-05-17 17:01:00,
2013-05-17 12:10:00,66.7,59.6,29.96,NNE,22,0.7,1.1,78,0.00,,OVC024,0.00,VWS V14.01,2013-05-17 17:10:00,
2013-05-17 12:15:00,66.9,59.8,29.96,NE,45,2.0,2.0,78,0.00,,OVC025,0.00,VWS V14.01,2013-05-17 17:15:00,
2013-05-17 12:20:00,67.1,59.7,29.96,SE,135,2.7,2.7,77,0.00,,OVC025,0.00,VWS V14.01,2013-05-17 17:20:00,
2013-05-17 12:25:00,67.3,59.8,29.95,East,90,1.3,2.7,77,0.00,,OVC025,0.00,VWS V14.01,2013-05-17 17:25:00,
2013-05-17 12:30:00,67.6,60.1,29.95,SSW,202,1.8,1.8,77,0.00,,OVC025,0.00,VWS V14.01,2013-05-17 17:30:00,
2013-05-17 12:35:00,67.8,60.0,29.95,ESE,112,3.1,3.1,76,0.00,,OVC025,0.00,VWS V14.01,2013-05-17 17:35:00,
2013-05-17 12:40:00,68.2,60.3,29.95,SSE,158,0.2,3.1,76,0.00,,OVC025,0.00,VWS V14.01,2013-05-17 17:40:00,
2013-05-17 12:45:00,68.3,60.5,29.95,ENE,68,2.5,2.5,76,0.00,,OVC025,0.00,VWS V14.01,2013-05-17 17:45:00,
2013-05-17 12:50:00,68.5,60.3,29.95,SW,225,0.4,2.5,75,0.00,,OVC025,0.00,VWS V14.01,2013-05-17 17:50:00,
2013-05-17 13:00:00,68.7,60.5,29.95,SE,135,1.1,1.1,75,0.00,,OVC025,0.00,VWS V14.01,2013-05-17 18:00:00,
2013-05-17 13:05:00,68.5,59.9,29.95,ENE,68,0.9,2.2,74,0.00,,OVC025,0.00,VWS V14.01,2013-05-17 18:05:00,
2013-05-17 13:10:00,68.5,59.9,29.95,NE,45,0.2,2.5,74,0.00,,OVC025,0.00,VWS V14.01,2013-05-17 18:10:00,
2013-05-17 13:15:00,68.7,60.1,29.94,ESE,112,0.2,2.5,74,0.00,,OVC027,0.00,VWS V14.01,2013-05-17 18:15:00,
2013-05-17 13:20:00,68.7,60.1,29.94,SSW,202,0.0,0.7,74,0.00,,OVC027,0.00,VWS V14.01,2013-05-17 18:20:00,
2013-05-17 13:25:00,68.9,60.3,29.94,East,90,0.7,1.6,74,0.00,,OVC027,0.00,VWS V14.01,2013-05-17 18:25:00,
2013-05-17 13:30:00,69.1,60.5,29.94,ENE,68,1.8,2.5,74,0.00,,OVC027,0.00,VWS V14.01,2013-05-17 18:30:00,
2013-05-17 13:35:00,69.2,60.2,29.94,SE,135,0.4,1.8,73,0.00,,OVC027,0.00,VWS V14.01,2013-05-17 18:35:00,
2013-05-17 13:40:00,69.4,60.4,29.94,ESE,112,1.1,2.5,73,0.00,,OVC027,0.00,VWS V14.01,2013-05-17 18:40:00,
2013-05-17 13:45:00,69.6,61.0,29.94,SSW,202,0.4,1.1,74,0.00,,OVC027,0.00,VWS V14.01,2013-05-17 18:45:00,
2013-05-17 13:51:00,69.8,60.8,29.94,SE,135,1.3,1.3,73,0.00,,OVC027,0.00,VWS V14.01,2013-05-17 18:51:00,
2013-05-17 14:00:00,70.0,61.0,29.93,SW,225,0.0,1.3,73,0.00,,OVC027,0.00,VWS V14.01,2013-05-17 19:00:00,
2013-05-17 14:05:00,70.0,60.6,29.93,South,180,0.0,1.3,72,0.00,,OVC027,0.00,VWS V14.01,2013-05-17 19:05:00,
2013-05-17 14:10:00,70.0,60.6,29.93,South,180,0.7,1.3,72,0.00,,OVC027,0.00,VWS V14.01,2013-05-17 19:10:00,
2013-05-17 14:15:00,70.0,60.6,29.94,South,180,0.4,3.4,72,0.00,,OVC034,0.00,VWS V14.01,2013-05-17 19:15:00,
2013-05-17 14:20:00,70.0,60.2,29.94,North,0,1.6,1.8,71,0.00,,OVC034,0.00,VWS V14.01,2013-05-17 19:20:00,
2013-05-17 14:25:00,70.0,60.2,29.93,SE,135,1.1,2.5,71,0.00,,OVC034,0.00,VWS V14.01,2013-05-17 19:25:00,
2013-05-17 14:30:00,70.1,60.3,29.94,ESE,112,0.9,1.1,71,0.00,,OVC034,0.00,VWS V14.01,2013-05-17 19:30:00,
2013-05-17 14:35:00,70.1,60.3,29.93,WSW,248,0.9,2.5,71,0.00,,OVC034,0.00,VWS V14.01,2013-05-17 19:35:00,
2013-05-17 14:41:00,70.3,60.5,29.94,South,180,0.9,0.9,71,0.00,,OVC034,0.00,VWS V14.01,2013-05-17 19:41:00,
2013-05-17 14:50:00,70.7,60.8,29.93,WSW,248,0.2,1.3,71,0.00,,OVC034,0.00,VWS V14.01,2013-05-17 19:50:00,
2013-05-17 14:55:00,70.9,60.6,29.93,SW,225,1.1,1.6,70,0.00,,OVC034,0.00,VWS V14.01,2013-05-17 19:55:00,
2013-05-17 15:01:00,71.2,60.9,29.93,ESE,112,0.0,2.2,70,0.00,,OVC034,0.00,VWS V14.01,2013-05-17 20:01:00,
2013-05-17 15:10:00,71.6,60.9,29.93,SW,225,0.2,1.6,69,0.00,,OVC034,0.00,VWS V14.01,2013-05-17 20:10:00,
2013-05-17 15:15:00,71.9,61.2,29.93,SSE,158,0.2,2.9,69,0.00,,OVC036,0.00,VWS V14.01,2013-05-17 20:15:00,
2013-05-17 15:20:00,71.9,60.8,29.92,WNW,292,2.5,2.5,68,0.00,,OVC036,0.00,VWS V14.01,2013-05-17 20:20:00,
2013-05-17 15:25:00,72.1,61.0,29.92,NW,315,0.0,2.5,68,0.00,,OVC036,0.00,VWS V14.01,2013-05-17 20:25:00,
2013-05-17 15:30:00,72.5,61.3,29.92,SSE,158,1.3,1.8,68,0.00,,OVC036,0.00,VWS V14.01,2013-05-17 20:30:00,
2013-05-17 15:35:00,72.8,61.2,29.92,SSW,202,0.4,1.3,67,0.00,,OVC036,0.00,VWS V14.01,2013-05-17 20:35:00,
2013-05-17 15:40:00,72.8,60.8,29.92,NNE,22,0.2,2.5,66,0.00,,OVC036,0.00,VWS V14.01,2013-05-17 20:40:00,
2013-05-17 15:50:00,72.8,60.8,29.92,East,90,0.9,0.9,66,0.00,,OVC036,0.00,VWS V14.01,2013-05-17 20:50:00,
2013-05-17 15:55:00,72.8,60.8,29.92,East,90,1.1,1.1,66,0.00,,OVC036,0.00,VWS V14.01,2013-05-17 20:55:00,
2013-05-17 16:01:00,72.8,60.8,29.92,NNE,22,2.0,2.0,66,0.00,,OVC036,0.00,VWS V14.01,2013-05-17 21:01:00,
2013-05-17 16:10:00,72.7,60.3,29.92,ESE,112,1.3,2.5,65,0.00,,OVC036,0.00,VWS V14.01,2013-05-17 21:10:00,
2013-05-17 16:15:00,72.8,60.4,29.91,East,90,0.4,1.8,65,0.00,,OVC036,0.00,VWS V14.01,2013-05-17 21:15:00,
2013-05-17 16:20:00,72.7,60.3,29.91,SE,135,1.1,2.2,65,0.00,,OVC036,0.00,VWS V14.01,2013-05-17 21:20:00,
2013-05-17 16:25:00,72.5,60.1,29.91,SW,225,0.4,1.8,65,0.00,,OVC036,0.00,VWS V14.01,2013-05-17 21:25:00,
2013-05-17 16:30:00,72.5,60.1,29.91,SSE,158,0.0,1.1,65,0.00,,OVC036,0.00,VWS V14.01,2013-05-17 21:30:00,
2013-05-17 16:35:00,72.5,60.1,29.91,SSE,158,1.3,3.1,65,0.00,,OVC036,0.00,VWS V14.01,2013-05-17 21:35:00,
2013-05-17 16:40:00,72.5,60.1,29.91,SE,135,0.7,1.8,65,0.00,,OVC036,0.00,VWS V14.01,2013-05-17 21:40:00,
2013-05-17 16:45:00,72.5,59.6,29.91,SE,135,1.8,2.5,64,0.00,,OVC036,0.00,VWS V14.01,2013-05-17 21:45:00,
2013-05-17 16:50:00,72.5,60.1,29.91,SE,135,1.3,2.5,65,0.00,,OVC036,0.00,VWS V14.01,2013-05-17 21:50:00,
2013-05-17 16:55:00,72.8,60.4,29.91,SSW,202,0.7,1.8,65,0.00,,OVC036,0.00,VWS V14.01,2013-05-17 21:55:00,
2013-05-17 17:01:00,72.8,59.9,29.90,SSE,158,0.0,1.1,64,0.00,,OVC036,0.00,VWS V14.01,2013-05-17 22:01:00,
2013-05-17 17:10:00,73.2,60.3,29.90,SE,135,0.9,1.6,64,0.00,,OVC036,0.00,VWS V14.01,2013-05-17 22:10:00,
2013-05-17 17:15:00,73.0,60.1,29.90,SSE,158,1.3,2.2,64,0.00,,OVC036,0.00,VWS V14.01,2013-05-17 22:15:00,
2013-05-17 17:20:00,73.2,60.3,29.90,SW,225,0.4,2.0,64,0.00,,OVC036,0.00,VWS V14.01,2013-05-17 22:20:00,
2013-05-17 17:25:00,73.4,60.5,29.90,SE,135,1.1,2.9,64,0.00,,OVC036,0.00,VWS V14.01,2013-05-17 22:25:00,
2013-05-17 17:30:00,73.4,60.0,29.91,ESE,112,0.9,1.8,63,0.00,,OVC036,0.00,VWS V14.01,2013-05-17 22:30:00,
2013-05-17 17:35:00,73.2,59.9,29.91,SW,225,1.6,1.6,63,0.00,,OVC036,0.00,VWS V14.01,2013-05-17 22:35:00,
2013-05-17 17:40:00,73.2,59.9,29.91,SSW,202,0.0,1.6,63,0.00,,OVC036,0.00,VWS V14.01,2013-05-17 22:40:00,
2013-05-17 17:45:00,73.2,59.9,29.91,SE,135,0.2,0.2,63,0.00,,OVC036,0.00,VWS V14.01,2013-05-17 22:45:00,
2013-05-17 17:50:00,73.2,59.9,29.91,WSW,248,0.0,0.9,63,0.00,,OVC036,0.00,VWS V14.01,2013-05-17 22:50:00,
2013-05-17 17:55:00,73.2,59.9,29.90,SSE,158,1.3,1.8,63,0.00,,OVC036,0.00,VWS V14.01,2013-05-17 22:55:00,
2013-05-17 18:01:00,73.2,59.9,29.90,SE,135,1.1,2.9,63,0.00,,OVC036,0.00,VWS V14.01,2013-05-17 23:01:00,
2013-05-17 18:10:00,72.8,59.9,29.90,ENE,68,0.0,0.9,64,0.00,,OVC036,0.00,VWS V14.01,2013-05-17 23:10:00,
2013-05-17 18:15:00,72.8,59.9,29.90,SSE,158,0.9,1.3,64,0.00,,BKN036,0.00,VWS V14.01,2013-05-17 23:15:00,
2013-05-17 18:20:00,72.7,59.8,29.90,SE,135,0.4,0.9,64,0.00,,BKN036,0.00,VWS V14.01,2013-05-17 23:20:00,
2013-05-17 18:25:00,72.7,59.8,29.90,ESE,112,0.0,0.9,64,0.00,,BKN036,0.00,VWS V14.01,2013-05-17 23:25:00,
2013-05-17 18:30:00,72.7,59.8,29.90,East,90,0.0,0.7,64,0.00,,BKN036,0.00,VWS V14.01,2013-05-17 23:30:00,
2013-05-17 18:35:00,72.8,59.9,29.90,SE,135,0.4,0.4,64,0.00,,BKN036,0.00,VWS V14.01,2013-05-17 23:35:00,
2013-05-17 18:40:00,72.8,59.9,29.90,WSW,248,0.0,1.1,64,0.00,,BKN036,0.00,VWS V14.01,2013-05-17 23:40:00,
2013-05-17 18:45:00,73.0,60.1,29.90,SE,135,0.7,1.8,64,0.00,,BKN036,0.00,VWS V14.01,2013-05-17 23:45:00,
2013-05-17 18:50:00,73.0,59.7,29.90,SSE,158,1.6,2.9,63,0.00,,BKN036,0.00,VWS V14.01,2013-05-17 23:50:00,
2013-05-17 18:55:00,73.0,59.7,29.90,SE,135,0.7,1.6,63,0.00,,BKN036,0.00,VWS V14.01,2013-05-17 23:55:00,
2013-05-17 19:01:00,73.0,59.7,29.90,NNE,22,0.4,1.1,63,0.00,,BKN036,0.00,VWS V14.01,2013-05-18 00:01:00,
2013-05-17 19:10:00,72.8,59.5,29.90,ESE,112,0.0,1.1,63,0.00,,BKN036,0.00,VWS V14.01,2013-05-18 00:10:00,
2013-05-17 19:15:00,72.7,59.4,29.90,SSW,202,0.0,1.1,63,0.00,,CLR,0.00,VWS V14.01,2013-05-18 00:15:00,
2013-05-17 19:20:00,72.7,59.4,29.90,ESE,112,0.0,0.9,63,0.00,,CLR,0.00,VWS V14.01,2013-05-18 00:20:00,
2013-05-17 19:25:00,72.5,59.2,29.90,ESE,112,1.1,1.1,63,0.00,,CLR,0.00,VWS V14.01,2013-05-18 00:25:00,
2013-05-17 19:30:00,72.5,59.2,29.90,NNW,338,0.4,1.1,63,0.00,,CLR,0.00,VWS V14.01,2013-05-18 00:30:00,
2013-05-17 19:35:00,72.3,59.5,29.90,ENE,68,1.1,1.1,64,0.00,,CLR,0.00,VWS V14.01,2013-05-18 00:35:00,
2013-05-17 19:40:00,72.1,59.3,29.91,ENE,68,0.0,2.9,64,0.00,,CLR,0.00,VWS V14.01,2013-05-18 00:40:00,
2013-05-17 19:45:00,72.1,59.3,29.91,East,90,0.0,0.0,64,0.00,,CLR,0.00,VWS V14.01,2013-05-18 00:45:00,
2013-05-17 19:50:00,71.9,59.1,29.91,East,90,0.0,0.2,64,0.00,,CLR,0.00,VWS V14.01,2013-05-18 00:50:00,
2013-05-17 19:55:00,71.8,59.4,29.90,ESE,112,0.0,0.0,65,0.00,,CLR,0.00,VWS V14.01,2013-05-18 00:55:00,
2013-05-17 20:01:00,71.4,59.0,29.90,East,90,0.0,0.0,65,0.00,,CLR,0.00,VWS V14.01,2013-05-18 01:01:00,
2013-05-17 20:10:00,71.0,59.1,29.90,East,90,0.0,0.0,66,0.00,,CLR,0.00,VWS V14.01,2013-05-18 01:10:00,
2013-05-17 20:15:00,70.7,58.8,29.90,East,90,0.0,0.0,66,0.00,,FEW037,0.00,VWS V14.01,2013-05-18 01:15:00,
2013-05-17 20:20:00,70.5,58.6,29.90,East,90,0.0,0.0,66,0.00,,FEW037,0.00,VWS V14.01,2013-05-18 01:20:00,
2013-05-17 20:25:00,70.1,58.7,29.90,East,90,0.0,0.0,67,0.00,,FEW037,0.00,VWS V14.01,2013-05-18 01:25:00,
2013-05-17 20:30:00,70.0,58.5,29.90,East,90,0.0,0.0,67,0.00,,FEW037,0.00,VWS V14.01,2013-05-18 01:30:00,
2013-05-17 20:35:00,69.6,58.6,29.90,East,90,0.0,0.0,68,0.00,,FEW037,0.00,VWS V14.01,2013-05-18 01:35:00,
2013-05-17 20:40:00,69.2,57.8,29.90,East,90,0.0,0.0,67,0.00,,FEW037,0.00,VWS V14.01,2013-05-18 01:40:00,
2013-05-17 20:45:00,68.9,57.5,29.90,East,90,0.0,0.0,67,0.00,,FEW037,0.00,VWS V14.01,2013-05-18 01:45:00,
2013-05-17 20:50:00,68.5,57.5,29.91,East,90,0.0,0.0,68,0.00,,FEW037,0.00,VWS V14.01,2013-05-18 01:50:00,
2013-05-17 20:55:00,68.2,57.2,29.91,East,90,0.0,0.0,68,0.00,,FEW037,0.00,VWS V14.01,2013-05-18 01:55:00,
2013-05-17 21:01:00,67.8,57.3,29.91,East,90,0.0,0.0,69,0.00,,FEW037,0.00,VWS V14.01,2013-05-18 02:01:00,
2013-05-17 21:10:00,67.3,57.2,29.91,East,90,0.0,0.0,70,0.00,,FEW037,0.00,VWS V14.01,2013-05-18 02:10:00,
2013-05-17 21:15:00,66.9,56.8,29.91,East,90,0.0,0.0,70,0.00,,CLR,0.00,VWS V14.01,2013-05-18 02:15:00,
2013-05-17 21:20:00,66.5,56.8,29.91,ENE,68,0.0,0.0,71,0.00,,CLR,0.00,VWS V14.01,2013-05-18 02:20:00,
2013-05-17 21:25:00,66.2,56.9,29.92,ENE,68,0.0,0.0,72,0.00,,CLR,0.00,VWS V14.01,2013-05-18 02:25:00,
2013-05-17 21:30:00,66.0,56.7,29.92,ENE,68,0.0,0.0,72,0.00,,CLR,0.00,VWS V14.01,2013-05-18 02:30:00,
2013-05-17 21:35:00,65.6,56.7,29.92,ENE,68,0.0,0.0,73,0.00,,CLR,0.00,VWS V14.01,2013-05-18 02:35:00,
2013-05-17 21:40:00,65.5,56.6,29.92,ENE,68,0.0,0.0,73,0.00,,CLR,0.00,VWS V14.01,2013-05-18 02:40:00,
2013-05-17 21:45:00,65.1,56.6,29.92,ENE,68,0.0,0.0,74,0.00,,CLR,0.00,VWS V14.01,2013-05-18 02:45:00,
2013-05-17 21:50:00,64.9,56.4,29.92,ENE,68,0.0,0.0,74,0.00,,CLR,0.00,VWS V14.01,2013-05-18 02:50:00,
2013-05-17 21:55:00,64.7,56.2,29.92,ENE,68,0.0,0.0,74,0.00,,CLR,0.00,VWS V14.01,2013-05-18 02:55:00,
2013-05-17 22:01:00,64.6,56.5,29.92,NE,45,0.0,0.0,75,0.00,,CLR,0.00,VWS V14.01,2013-05-18 03:01:00,
2013-05-17 22:10:00,64.0,56.3,29.92,NE,45,0.0,0.0,76,0.00,,CLR,0.00,VWS V14.01,2013-05-18 03:10:00,
2013-05-17 22:15:00,63.8,56.1,29.92,NE,45,0.0,0.0,76,0.00,,CLR,0.00,VWS V14.01,2013-05-18 03:15:00,
2013-05-17 22:20:00,63.7,56.4,29.93,NE,45,0.0,0.0,77,0.00,,CLR,0.00,VWS V14.01,2013-05-18 03:20:00,
2013-05-17 22:25:00,63.5,56.2,29.93,NNE,22,0.0,0.0,77,0.00,,CLR,0.00,VWS V14.01,2013-05-18 03:25:00,
2013-05-17 22:30:00,63.1,55.8,29.93,NNE,22,0.0,0.0,77,0.00,,CLR,0.00,VWS V14.01,2013-05-18 03:30:00,
2013-05-17 22:35:00,63.1,56.1,29.93,North,0,0.0,0.0,78,0.00,,CLR,0.00,VWS V14.01,2013-05-18 03:35:00,
2013-05-17 22:40:00,62.8,55.8,29.93,North,0,0.0,0.0,78,0.00,,CLR,0.00,VWS V14.01,2013-05-18 03:40:00,
2013-05-17 22:45:00,62.8,56.2,29.93,North,0,0.0,0.0,79,0.00,,CLR,0.00,VWS V14.01,2013-05-18 03:45:00,
2013-05-17 22:50:00,62.6,56.0,29.94,NNW,338,0.0,0.0,79,0.00,,CLR,0.00,VWS V14.01,2013-05-18 03:50:00,
2013-05-17 22:55:00,62.4,56.2,29.94,NNW,338,0.0,0.0,80,0.00,,CLR,0.00,VWS V14.01,2013-05-18 03:55:00,
2013-05-17 23:02:00,62.2,56.0,29.94,NNW,338,0.0,0.0,80,0.00,,CLR,0.00,VWS V14.01,2013-05-18 04:02:00,
2013-05-17 23:05:00,62.0,55.8,29.94,NNW,338,0.0,0.0,80,0.00,,CLR,0.00,VWS V14.01,2013-05-18 04:05:00,
2013-05-17 23:10:00,61.9,55.7,29.94,NNW,338,0.0,0.0,80,0.00,,CLR,0.00,VWS V14.01,2013-05-18 04:10:00,
2013-05-17 23:12:00,61.9,55.7,29.94,NNW,338,0.0,0.0,80,0.00,,CLR,0.00,VWS V14.01,2013-05-18 04:12:00,
2013-05-17 23:20:00,61.7,55.5,29.94,NNW,338,0.0,0.0,80,0.00,,CLR,0.00,VWS V14.01,2013-05-18 04:20:00,
2013-05-17 23:25:00,61.5,55.3,29.94,NNW,338,0.0,0.0,80,0.00,,CLR,0.00,VWS V14.01,2013-05-18 04:25:00,
2013-05-17 23:30:00,61.3,55.1,29.94,NNW,338,0.0,0.0,80,0.00,,CLR,0.00,VWS V14.01,2013-05-18 04:30:00,
2013-05-17 23:35:00,61.3,55.4,29.94,NNW,338,0.0,0.0,81,0.00,,CLR,0.00,VWS V14.01,2013-05-18 04:35:00,
2013-05-17 23:40:00,61.3,55.4,29.94,NNW,338,0.0,0.0,81,0.00,,CLR,0.00,VWS V14.01,2013-05-18 04:40:00,
2013-05-17 23:45:00,61.1,55.2,29.94,NNW,338,0.0,0.0,81,0.00,,CLR,0.00,VWS V14.01,2013-05-18 04:45:00,
2013-05-17 23:50:00,61.0,55.1,29.94,NNW,338,0.0,0.0,81,0.00,,CLR,0.00,VWS V14.01,2013-05-18 04:50:00,
2013-05-17 23:52:00,61.0,55.5,29.94,NNW,338,0.0,0.0,82,0.00,,CLR,0.00,VWS V14.01,2013-05-18 04:52:00,